TimeCST,TemperatureF,Dew PointF,Humidity,Sea Level PressureIn,VisibilityMPH,Wind Direction,Wind SpeedMPH,Gust SpeedMPH,PrecipitationIn,Events,Conditions,WindDirDegrees,DateUTC
12:15 AM,30.2,28.4,93,29.86,4.0,SSE,12.7,-,N/A,,Overcast,150,2012-12-01 06:15:00
12:35 AM,30.2,28.4,93,29.84,4.0,SSE,13.8,18.4,N/A,,Overcast,150,2012-12-01 06:35:00
12:55 AM,30.2,28.4,93,29.82,4.0,SE,12.7,16.1,N/A,,Overcast,140,2012-12-01 06:55:00
1:16 AM,32.0,28.4,87,29.80,4.0,SSE,12.7,18.4,N/A,,Overcast,150,2012-12-01 07:16:00
1:35 AM,32.0,30.2,93,29.79,4.0,SSE,16.1,19.6,N/A,,Overcast,150,2012-12-01 07:35:00
2:16 AM,33.8,30.2,87,29.78,4.0,SSE,15.0,21.9,N/A,,Overcast,150,2012-12-01 08:16:00
3:16 AM,33.8,30.2,87,29.73,5.0,SSE,15.0,21.9,N/A,,Clear,150,2012-12-01 09:16:00
3:35 AM,33.8,30.2,87,29.71,5.0,SSE,16.1,19.6,N/A,,Clear,150,2012-12-01 09:35:00
3:55 AM,33.8,30.2,87,29.70,5.0,SSE,13.8,20.7,N/A,,Clear,150,2012-12-01 09:55:00
4:16 AM,33.8,30.2,87,29.68,5.0,SSE,13.8,21.9,N/A,,Clear,160,2012-12-01 10:16:00
4:35 AM,33.8,30.2,87,29.69,5.0,SSE,13.8,-,N/A,,Clear,160,2012-12-01 10:35:00
4:55 AM,33.8,30.2,87,29.68,5.0,SSE,9.2,13.8,N/A,,Clear,160,2012-12-01 10:55:00
5:16 AM,33.8,30.2,87,29.68,5.0,SSE,13.8,18.4,N/A,,Clear,160,2012-12-01 11:16:00
6:35 AM,33.8,30.2,87,29.70,4.0,SSE,10.4,-,N/A,,Clear,160,2012-12-01 12:35:00
6:55 AM,33.8,30.2,87,29.69,4.0,SSE,9.2,-,N/A,,Clear,160,2012-12-01 12:55:00
7:16 AM,33.8,30.2,87,29.70,4.0,SSE,10.4,-,N/A,,Clear,160,2012-12-01 13:16:00
7:35 AM,33.8,30.2,87,29.70,4.0,SSE,10.4,-,N/A,,Scattered Clouds,160,2012-12-01 13:35:00
8:16 AM,33.8,30.2,87,29.69,3.0,SSE,9.2,-,N/A,,Clear,160,2012-12-01 14:16:00
8:35 AM,33.8,30.2,87,29.70,2.5,South,9.2,-,N/A,,Clear,170,2012-12-01 14:35:00
8:55 AM,33.8,30.2,87,29.69,2.5,SSE,11.5,-,N/A,,Clear,160,2012-12-01 14:55:00
9:16 AM,33.8,30.2,87,29.69,2.5,SSE,10.4,-,N/A,,Clear,160,2012-12-01 15:16:00
9:35 AM,33.8,30.2,87,29.70,2.0,South,10.4,-,N/A,,Clear,170,2012-12-01 15:35:00
9:55 AM,33.8,30.2,87,29.70,2.0,South,8.1,-,N/A,,Clear,170,2012-12-01 15:55:00
10:16 AM,33.8,30.2,87,29.70,2.0,South,10.4,-,N/A,,Clear,180,2012-12-01 16:16:00
10:35 AM,35.6,32.0,87,29.70,2.0,South,5.8,-,N/A,,Clear,180,2012-12-01 16:35:00
10:55 AM,35.6,32.0,87,29.70,2.5,South,8.1,-,N/A,,Clear,190,2012-12-01 16:55:00
11:16 AM,37.4,32.0,81,29.69,2.5,South,8.1,-,N/A,,Haze,180,2012-12-01 17:16:00
11:35 AM,37.4,33.8,87,29.69,2.5,South,9.2,-,N/A,,Haze,190,2012-12-01 17:35:00
11:55 AM,39.2,33.8,81,29.69,2.5,Calm,Calm,-,N/A,,Haze,0,2012-12-01 17:55:00
12:16 PM,37.4,33.8,87,29.69,2.5,SSW,8.1,-,N/A,,Mostly Cloudy,210,2012-12-01 18:16:00
12:35 PM,37.4,32.0,81,29.69,3.0,SW,9.2,-,N/A,,Haze,230,2012-12-01 18:35:00
12:55 PM,37.4,32.0,81,29.69,3.0,SW,8.1,-,N/A,,Haze,230,2012-12-01 18:55:00
1:16 PM,35.6,30.2,81,29.69,3.0,WSW,5.8,-,N/A,,Haze,240,2012-12-01 19:16:00
1:35 PM,35.6,30.2,81,29.69,3.0,WSW,5.8,-,N/A,,Haze,250,2012-12-01 19:35:00
1:55 PM,35.6,30.2,81,29.70,3.0,Calm,Calm,-,N/A,,Haze,0,2012-12-01 19:55:00
2:16 PM,35.6,30.2,81,29.71,3.0,WSW,6.9,-,N/A,,Overcast,250,2012-12-01 20:16:00
2:35 PM,35.6,30.2,81,29.72,3.0,West,8.1,-,N/A,,Overcast,260,2012-12-01 20:35:00
3:16 PM,33.8,30.2,87,29.73,2.5,Calm,Calm,-,N/A,,Overcast,0,2012-12-01 21:16:00
3:35 PM,33.8,30.2,87,29.73,2.0,WNW,3.5,-,N/A,,Overcast,290,2012-12-01 21:35:00
3:55 PM,33.8,30.2,87,29.75,2.0,Calm,Calm,-,N/A,,Overcast,0,2012-12-01 21:55:00
4:16 PM,32.0,30.2,93,29.76,3.0,Calm,Calm,-,N/A,,Overcast,0,2012-12-01 22:16:00
4:35 PM,32.0,30.2,93,29.77,3.0,Calm,Calm,-,N/A,,Overcast,0,2012-12-01 22:35:00
4:55 PM,30.2,28.4,93,29.77,3.0,NW,8.1,-,N/A,,Overcast,320,2012-12-01 22:55:00
5:14 PM,30.2,28.4,93,29.76,3.0,Calm,Calm,-,N/A,,Overcast,0,2012-12-01 23:14:00
5:55 PM,30.2,28.4,93,29.77,3.0,Calm,Calm,-,N/A,,Overcast,0,2012-12-01 23:55:00
6:15 PM,30.2,28.4,93,29.78,3.0,Calm,Calm,-,N/A,,Overcast,0,2012-12-02 00:15:00
6:35 PM,30.2,28.4,93,29.79,2.5,Calm,Calm,-,N/A,,Overcast,0,2012-12-02 00:35:00
6:55 PM,30.2,28.4,93,29.79,2.0,NW,5.8,-,N/A,,Overcast,310,2012-12-02 00:55:00
7:15 PM,30.2,28.4,93,29.80,1.8,Calm,Calm,-,N/A,,Overcast,0,2012-12-02 01:15:00
7:35 PM,30.2,28.4,93,29.80,1.8,NW,6.9,-,N/A,,Overcast,320,2012-12-02 01:35:00
7:55 PM,30.2,28.4,93,29.81,1.5,NNW,5.8,-,N/A,,Overcast,330,2012-12-02 01:55:00
8:15 PM,30.2,28.4,93,29.81,1.5,Calm,Calm,-,N/A,,Overcast,0,2012-12-02 02:15:00
8:35 PM,30.2,28.4,93,29.82,1.8,Calm,Calm,-,N/A,,Overcast,0,2012-12-02 02:35:00
8:55 PM,30.2,28.4,93,29.83,2.5,Calm,Calm,-,N/A,,Overcast,0,2012-12-02 02:55:00
9:15 PM,30.2,28.4,93,29.84,1.5,Calm,Calm,-,N/A,,Overcast,0,2012-12-02 03:15:00
9:35 PM,30.2,28.4,93,29.83,0.5,Calm,Calm,-,N/A,Fog,Light Freezing Fog,0,2012-12-02 03:35:00
9:55 PM,30.2,28.4,93,29.84,0.2,WNW,5.8,-,N/A,Fog,Light Freezing Fog,300,2012-12-02 03:55:00
10:15 PM,28.4,28.4,100,29.84,0.2,Calm,Calm,-,N/A,Fog,Light Freezing Fog,0,2012-12-02 04:15:00
10:35 PM,28.4,28.4,100,29.84,0.2,West,3.5,-,N/A,Fog,Light Freezing Fog,280,2012-12-02 04:35:00
10:55 PM,28.4,28.4,100,29.86,0.5,West,5.8,-,N/A,Fog,Light Freezing Fog,270,2012-12-02 04:55:00
11:15 PM,28.4,28.4,100,29.85,0.5,Calm,Calm,-,N/A,Fog,Light Freezing Fog,0,2012-12-02 05:15:00
11:35 PM,28.4,28.4,100,29.86,1.0,Calm,Calm,-,N/A,,Overcast,0,2012-12-02 05:35:00
11:55 PM,28.4,28.4,100,29.86,0.5,Calm,Calm,-,N/A,Fog,Light Freezing Fog,0,2012-12-02 05:55:00